カタログに戻る

SL-16 DEB

運用中LEO
NORAD 39726·DEBRIS·🇷🇺 Russia

打ち上げ Dec 25, 1992 から Baikonur Cosmodrome

Loading…

次のパス (今後24時間)

TLE

経年Source: Space-Track

元期: Sep 12, 2026, 06:19 UTC

1 39726U 92093KS  26255.26331196  .00000094  00000-0  10290-3 0  9999
2 39726  71.1561 104.5177 0122749 223.2021 258.6983 13.91369865629641

AllMySatでSL-16 DEBをリアルタイム追跡

Download on the App Store